CanjetBLOCKVirtuelBLOCKQcBLOCKBLOCKBLOCKBLOCKBLOCKBLOCKBLOCKBLOCKBLOCKBLOCKBLOCKvolsBLOCKavecBLOCKFS-kACARS2019-10-22BLOCK12colon41pm

volsBLOCKBLOCKBLOCKBLOCKBLOCKpilotesBLOCKBLOCKBLOCKBLOCKBLOCKBLOCKBLOCKBLOCKtypeBLOCKBLOCKdepBLOCKBLOCKarrBLOCKBLOCKBLOCKBLOCKBLOCKaltBLOCKBLOCKBLOCKBLOCKBLOCKgsBLOCKBLOCKBLOCKBLOCKstatut

cja9999LouisBLOCKMB738CYEG-CYZF0ft0ktsarrived
CJA9999StephaneBLOCKGB738CYUL-KSFO33993ft439kts01colon09pm
CJA150LucBLOCKBB77LCYYZ-VHHH31998ft482kts05colon00pm








BLOCKAppuyerBLOCKsurBLOCKF5BLOCKpourBLOCKactualiserBLOCKBLOCKBLOCKMiseBLOCKaBLOCKjourcolonBLOCK12colon41colon09pmCanjetBLOCKvirtuelBLOCKQC

Retour possible du 737 MAX

Publié par Yvan Roy le 2019-10-14


 
                                                        

 


  


Microsoft flight sim 2020

Publié par Yvan Roy le 2019-06-25

 

Microsoft flight simulator 2020 encore plus fort sera disponible pour votre PC au début 2020 .

 

https://www.flightsimulator.com/
 

                                                   

 





Bienvenue chez Canjetvirtuel-Q

Publié par Michel Ayotte le 2013-06-14

 

Canjetvirtuel-Québec est une compagnie aérienne virtuelle qui a été fondée par 2 passionnés de la simulation de vol.

Elle est opérée avec les Boeing 737. Exceptionnelement et pour votre plaisir les Boeing 747,757,767 et 777 sont autorisés pour des vols de plus de 1,5 heure.

Ces appareils pouvant faire des vols cargos ou des vols passagers,que ce soit au Canada, Europe, États-Unis, Mexique et Caraïbes.

Vous trouverez votre place comme pilote chez nous!



Avis

Aux fins de la simulation de vol seulement. CanjetVirtuel Québec n'est en aucun cas affilié avec n'importe quelle compagnie aérienne du monde réel. CanjetVirtuel Québec est un site à but non lucratif gérée par des amateurs de simulation de vol. Toutes les images sont la propriété exclusive de leurs propriétaires respectifs.
| propulsé par phpVMS, © 2013-2019.

Notice

For flight simulation purposes only. CanjetVirtuel Quebec is in no way affiliated with any real world airline. CanjetVirtuel Quebec is a non-profit site run by flight simulation enthusiasts. All images are the sole property of their respective owners.
| powered by phpVMS, © 2013-2019.

Affiliations

Vatsim

Les statistiques du site

Nombre de pilotes: 15
Total des vols effectués: 4848
Trajets disponibles: 543
Passagers transportés: 957707
Total des heures de vol: 14762
Distance totale (NM): 5979040
Pilotes en ligne: 6

METAR

CYHZ 221600Z 07007KT 15SM FEW035 BKN260 13/05 A3024 RMK CU1CI6 CU TR SLP244

CYQB 221600Z 07013G21KT 15SM FEW015 BKN150 OVC200 09/05 A3010 RMK SC1AC6CI1 SLP198

CYUL 221600Z 14017G25KT 30SM FEW150 BKN180 OVC240 16/07 A2994 RMK AC1AC5CI2 SLP140 DENSITY ALT 300FT

CYYZ 221600Z 15016G31KT 15SM -RA OVC005 14/14 A2969 RMK ST8 PRESFR SLP055 DENSITY ALT 900FT